STARLINK-32848, 62808

Orbit data source: Space-Track

STARLINK-32848, 62808 is a payload satellite owned by SpaceX/Seattle (US) in LEO that was launched on Fri, 24 Jan 2025 UTC via an FALCON 9 launch vehicle from the Air Force Western Test Range (AFWTR). Payload-class satellites include a variety of spacecraft equipped with specific instruments for various scientific and technological missions. These include communications satellites like Starlink; space stations such as the ISS; scientific satellites like the Hubble; Earth observation satellites from companies like Planet Labs, Umbra, and HawkEye 360; GPS; miniature CubeSats for education and research; and military/defense satellites.

Loading next visibility...
Identifier
62808, 2025-018C
Orbit
LEO
Country
Flag of USUS
Related business
Manufacturer
SpaceX/Seattle
Mission
Operational Commercial Communications
Bus & Motor
STARLINK V2M, Unknown motor
Mass
730 kg wet, ~700 kg dry
Launch date (UTC)
2025-01-24 (2 years ago)
Launch vehicle
FALCON 9
Launch site
Air Force Western Test Range (AFWTR)
Object type
Payload
Rocket body
Debris
Shape & HBR
Box + 2 Pan, 17.7 m
Radar Cross Section
33.884 m², Large (>1 m²)

Expand to show TLE details & history
Last TLE update: 20 hours ago

TLE from 20 hours ago
0 STARLINK-32848
1 62808U 25018C   26237.31123738  .00011992  00000-0  39739-3 0  9994
2 62808  53.1570 245.0557 0001135  89.9073 270.2058 15.31716276 89001
Epoch: 2026-08-25T07:28Z
TLE epoch observation values (Epoch: 2026-08-25T07:28:10.909Z)
Latitude
-0.00007°
Longitude
159.42979°
Altitude
471.589 km
Speed
7.631 km/s
True Right ascension
16h 20m 13s
True Declination
0° 00' 00"
Sunlit
Object was in daylight at epoch
Visualization orbit readout
Latitude
Unknown
Longitude
Unknown
Altitude
Unknown
Speed
Unknown
Apparent Right ascension
Unknown
Apparent Declination
Unknown
Sunlit
N/A
Visualization observer readout
Local Sidereal Time
19:10:27
Azimuth
Unknown
Elevation
Unknown
Doppler factor
Unknown
Orbital elements
Apogee altitude
471.726 km
Perigee altitude
470.171 km
Semi-major axis
6,849.086 km
Eccentricity
0.00011
Inclination
53.157°
RAAN
245.0557°
Arg. of periapsis
89.9073°
True anomaly
270.19279°
Mean anomaly
270.2058°
Eccentric anomaly
270.1993°
Mean motion
3.82908 °/min
Orbital period
94.02 mins
BSTAR
0.00039739
Loading maneuver chart data...
Computing Atmospheric mass density...
Loading historical data...
Loading historical data...
Loading historical data...
Loading historical data...
Loading historical data...
Loading historical data...
Loading historical data...

Documentation

Showing up to 5 results
|